Volver al catálogo

KUIPER-00214

ActivoComunicacionesLEO
NORAD 67778·PAYLOAD·🇺🇸 United States

Lanzado Feb 12, 2026 desde Guiana Space Centre

Loading…

Próximos Pases (próximas 24 horas)

TLE

ActualizadoSource: CelesTrak SupGP

Época: Sep 14, 2026, 20:06 UTC

1 67778C 26030Q   26257.83797454  .00004356  00000+0  57030-3 0  2577
2 67778  51.8988  86.7783 0000712 105.5253 203.8437 14.79916491    15

Sigue KUIPER-00214 en tiempo real con AllMySat

Download on the App Store